Location: Amber Place
(27.9751°N, 82.3711°W)
Time: 10:31:35
(UTC+00:00)

Tiangong - Pass Details

Date: 27 September 2021
Orbit: 382 x 385 km, 41.5° (Epoch: 17 October)

Event Time Altitude Azimuth Distance (km) Brightness Sun altitude
Exits shadow 10:40:22 - 308° (NW) 1,506 3.6 -9.7°
Reaches altitude 10° 10:40:56 10° 316° (NW) 1,393 3.5 -9.6°
Maximum altitude 10:42:20 12° 343° (NNW) 1,262 3.5 -9.3°
Drops below altitude 10° 10:43:45 10° 10° (N) 1,394 4.1 -8.9°
Sets 10:46:47 0° 42° (NE) 2,246 5.7 -8.3°
